Location: Karlsruhe
(49.0131°N, 8.3874°E)
Time: 19:55:02
(UTC+02:00)

ISS - Pass Details

Date: 30 March 2017
Orbit: 399 x 409 km, 51.6° (Epoch: 29 March)

Event Time Altitude Azimuth Distance (km) Brightness Sun altitude
Rises 22:23:51 0° 262° (W) 2,313 0.7 -23.2°
Reaches altitude 10° 22:25:56 10° 266° (W) 1,457 -0.4 -23.5°
Enters shadow 22:28:00 35° 280° (W) 679 -2.3 -23.8°
